Location: North Evanston
(42.0634°N, 87.6976°W)
Time: 02:17:38
(UTC+00:00)

Tiros 1 despin weight - All Passes

Search period start: 14 May 2026 00:00
Search period end: 24 May 2026 00:00
Orbit: 555 x 591 km, 48.2° (Epoch: 12 May)

Date Brightness Start Highest point End Pass type
(mag) Time Alt. Az. Time Alt. Az. Time Alt. Az.
14 May - 10:23:37 10° SSW 10:27:17 29° SE 10:30:58 10° E daylight
14 May - 12:03:24 10° WSW 12:07:37 67° NNW 12:11:48 10° ENE daylight
14 May - 13:44:42 10° WNW 13:48:35 35° N 13:52:28 10° ENE daylight
14 May - 15:25:38 10° WNW 15:29:42 48° NNE 15:33:46 10° E daylight
14 May - 17:06:13 10° WNW 17:10:17 50° SW 17:14:21 10° SE daylight
15 May - 10:24:57 10° SW 10:28:59 43° SE 10:32:59 10° ENE daylight
15 May - 12:05:22 10° W 12:09:30 52° NNW 12:13:37 10° ENE daylight
15 May - 13:46:43 10° WNW 13:50:35 35° N 13:54:27 10° ENE daylight
15 May - 15:27:27 10° WNW 15:31:36 60° NNE 15:35:46 10° ESE daylight
15 May - 17:08:13 10° WNW 17:11:59 33° SW 17:15:47 10° SSE daylight
16 May - 08:49:03 10° SSE 08:50:49 12° SE 08:52:36 10° ESE visible
16 May - 10:26:31 10° SW 10:30:44 64° SSE 10:34:54 10° ENE daylight
16 May - 12:07:22 10° W 12:11:25 43° NNW 12:15:27 10° ENE daylight
16 May - 13:48:39 10° WNW 13:52:34 36° N 13:56:28 10° ENE daylight
16 May - 15:29:16 10° WNW 15:33:28 80° NNE 15:37:40 10° ESE daylight
16 May - 17:10:23 10° W 17:13:39 22° SW 17:16:55 10° S daylight
17 May - 08:49:20 10° S 08:52:24 19° SE 08:55:27 10° E visible
17 May - 10:28:15 10° WSW 10:32:31 90° WNW 10:36:45 10° ENE daylight
17 May - 12:09:25 10° WNW 12:13:23 38° N 12:17:19 10° ENE daylight
17 May - 13:50:32 10° WNW 13:54:31 40° NNE 13:58:30 10° E daylight
17 May - 15:31:05 10° WNW 15:35:17 74° SSW 15:39:27 10° SE daylight
17 May - 17:12:57 10° W 17:15:14 14° SW 17:17:33 10° SSW daylight
18 May - 08:50:20 10° SSW 08:54:01 29° SE 08:57:43 10° E visible
18 May - 10:30:06 10° WSW 10:34:21 67° NNW 10:38:33 10° ENE daylight
18 May - 12:11:26 10° WNW 12:15:20 35° N 12:19:14 10° ENE daylight
18 May - 13:52:21 10° WNW 13:56:27 48° NNE 14:00:31 10° E daylight
18 May - 15:32:58 10° WNW 15:37:02 50° SW 15:41:05 10° SE daylight
19 May - 08:51:38 10° SW 08:55:42 43° SE 08:59:44 10° ENE visible
19 May - 10:32:03 10° W 10:36:13 52° NNW 10:40:21 10° ENE daylight
19 May - 12:13:24 10° WNW 12:17:18 35° N 12:21:11 10° ENE daylight
19 May - 13:54:10 10° WNW 13:58:20 60° NNE 14:02:29 10° ESE daylight
19 May - 15:34:56 10° WNW 15:38:44 33° SW 15:42:30 10° SSE daylight
20 May - 07:15:42 10° SSE 07:17:31 12° SE 07:19:19 10° ESE visible
20 May - 08:53:11 10° SW 08:57:26 64° SSE 09:01:38 10° ENE visible
20 May - 10:34:02 10° W 10:38:07 43° NNW 10:42:10 10° ENE daylight
20 May - 12:15:19 10° WNW 12:19:16 36° N 12:23:10 10° ENE daylight
20 May - 13:55:57 10° WNW 14:00:11 80° NNE 14:04:22 10° ESE daylight
20 May - 15:37:04 10° W 15:40:21 22° SW 15:43:37 10° S daylight
21 May - 07:15:59 10° S 07:19:04 19° SE 07:22:09 10° E visible
21 May - 08:54:54 10° WSW 08:59:11 90° SSE 09:03:27 10° ENE visible
21 May - 10:36:03 10° WNW 10:40:03 38° N 10:44:01 10° ENE daylight
21 May - 12:17:11 10° WNW 12:21:12 40° NNE 12:25:11 10° E daylight
21 May - 13:57:45 10° WNW 14:01:58 74° SSW 14:06:08 10° SE daylight
21 May - 15:39:36 10° W 15:41:55 15° SW 15:44:15 10° SSW daylight
22 May - 07:16:57 10° SSW 07:20:40 29° SE 07:24:23 10° E visible
22 May - 08:56:44 10° WSW 09:01:00 68° NNW 09:05:14 10° ENE visible
22 May - 10:38:03 10° WNW 10:42:00 35° N 10:45:54 10° ENE daylight
22 May - 12:19:00 10° WNW 12:23:07 48° NNE 12:27:11 10° E daylight
22 May - 13:59:36 10° WNW 14:03:42 50° SW 14:07:45 10° SE daylight
23 May - 07:18:15 10° SW 07:22:20 43° SE 07:26:24 10° ENE visible
23 May - 08:58:39 10° W 09:02:51 53° NNW 09:07:01 10° ENE visible
23 May - 10:40:01 10° WNW 10:43:57 35° N 10:47:51 10° ENE daylight
23 May - 12:20:47 10° WNW 12:24:58 60° NNE 12:29:08 10° ESE daylight
23 May - 14:01:34 10° WNW 14:05:22 34° SW 14:09:09 10° SSE daylight
